Home > Weather > Landsberg am Lech > Past weeks

Flag for Germany Past Weather in Landsberg am Lech, Bavaria, Germany — Yesterday and Last 2 Weeks

Now
66 °F

Mild.


Feels Like: 66 °F
Forecast: 64 / 85 °F
Wind: 1 mph from North

Location: Landsberg

Current Time: Aug 27, 2016 at 8:52:30 AM

Latest Report: Aug 27, 2016 at 8:20 AM


Visibility: N/A

Pressure: 30.15 "Hg (28.13 "Hg at 593m altitude)

Humidity: 78%

Dew Point: 59 °F

Location of Landsberg am LechLocation

Past Weather in Landsberg am Lech — Graph

°F

Landsberg am Lech Temperature Yesterday

Maximum temperature yesterday: 86 °F (at 3:20 PM)
Minimum temperature yesterday: 55 °F (at 2:20 AM)
Average temperature yesterday: 71 °F

High & Low Weather Summary for the Past Weeks

 TemperatureHumidityPressure
High86 °F (Aug 26, 3:20 PM)94% (Aug 12, 7:20 AM)30.42 "Hg (Aug 12, 7:20 AM)
Low50 °F (Aug 23, 5:20 AM)40% (Aug 26, 5:20 PM)29.86 "Hg (Aug 18, 5:20 AM)
Average65 °F72%30.15 "Hg
* Reported Aug 12 7:20 AM — Aug 27 7:20 AM, Landsberg am Lech, Weather by CustomWeather, © 2016

Note: Actual official high and low records may vary slightly from our data, if they occured in-between our weather recording intervals... More about our weather records

Advertising

Landsberg am Lech Weather History for the Previous 24 Hours

Scroll right to see more
 ConditionsComfort  
Time TempWeatherWind HumidityBarometerVisibility
7:20 AM
Sat, Aug 27
61 °FCool.3 mph94%30.15 "HgN/A
6:20 AM59 °FFog.2 mph94%30.15 "HgN/A
5:20 AM61 °FFog.2 mph94%30.15 "HgN/A
4:20 AM61 °FFog.1 mph94%30.15 "HgN/A
3:20 AM63 °FMild.1 mph94%30.15 "HgN/A
2:20 AM64 °FMild.2 mph94%30.15 "HgN/A
1:20 AM66 °FMild.3 mph83%30.15 "HgN/A
12:20 AM66 °FMild.3 mph83%30.15 "HgN/A
11:20 PM
Fri, Aug 26
68 °FMild.3 mph78%30.15 "HgN/A
10:20 PM70 °FMild.3 mph78%30.15 "HgN/A
9:20 PM72 °FMild.2 mph78%30.12 "HgN/A
8:20 PM77 °FWarm.3 mph57%30.12 "HgN/A
7:20 PM82 °FWarm.5 mph48%30.12 "HgN/A
6:20 PM84 °FWarm.6 mph45%30.12 "HgN/A
5:20 PM86 °FPassing clouds.5 mph40%30.12 "HgN/A
4:20 PM86 °FPassing clouds.6 mph43%30.12 "HgN/A
3:20 PM86 °FPassing clouds.6 mph43%30.12 "HgN/A
2:20 PM82 °FPassing clouds.7 mph51%30.12 "HgN/A
1:20 PM82 °FPassing clouds.6 mph55%30.12 "HgN/A
12:20 PM81 °FPassing clouds.7 mph58%30.12 "HgN/A
11:20 AM77 °FWarm.8 mph65%30.15 "HgN/A
10:20 AM75 °FMild.6 mph69%30.12 "HgN/A
9:20 AM72 °FMild.5 mph73%30.12 "HgN/A
8:20 AM66 °FMild.3 mph83%30.12 "HgN/A
Weather by CustomWeather, © 2016

See weather overviewHow to use our weather pages